This demonstration page uses our WeatherBlox Daily Observations layout. Learn more.

39.08367, -84.50855

Hourly Observations for August 16, 2019

Temp ( °F °C ) Dew Point ( °F °C ) Humidity (%) Winds ( mph kmh ) Pressure ( in mb ) Visibility ( mi km ) Precip ( " mm )
12:53 am 00:53 Clear 66 18.9 64 17.8 93 93 Calm 29.97 1015 10 16.09344 0 0
1:53 am 01:53 Clear 65 18.3 64 17.8 97 97 Calm 29.97 1015 9 14.484096 0 0
2:53 am 02:53 Clear 65 18.3 64 17.8 97 97 Calm 29.97 1015 7 11.265408 0 0
3:53 am 03:53 Clear 64 17.8 63 17.2 96 96 Calm 29.97 1015 7 11.265408 0 0
4:53 am 04:53 Clear with Mist and Fog 64 17.8 63 17.2 96 96 NE 3 6 29.97 1015 6 9.656064 0 0
5:53 am 05:53 Clear 63 17.2 62 16.7 97 97 Calm 29.97 1015 7 11.265408 0 0
6:10 am 06:10 Clear with Mist and Fog 63 17.2 63 17.2 100 100 Calm 29.97 1015 1.75 2.816352 0 0
6:22 am 06:22 Clear with Mist and Fog 63 17.2 63 17.2 100 100 Calm 29.97 1015 0.75 1.207008 0 0
6:28 am 06:28 Clear with Mist and Fog 63 17.2 63 17.2 100 100 Calm 29.97 1015 2 3.218688 0 0
6:41 am 06:41 Clear with Mist and Fog 63 17.2 63 17.2 100 100 Calm 29.97 1015 4 6.437376 0 0
6:53 am 06:53 Sunny with Fog 64 17.8 63 17.2 96 96 Calm 29.97 1015 7 11.265408 0 0
7:01 am 07:01 Sunny with Fog 62 16.7 62 16.7 100 100 Calm 29.97 1015 0.75 1.207008 0 0
7:12 am 07:12 Sunny with Fog 63 17.2 63 17.2 100 100 Calm 29.97 1015 7 11.265408 0 0
7:36 am 07:36 Partly Cloudy with Fog 64 17.8 64 17.8 100 100 Calm 30 1016 7 11.265408 0 0
7:53 am 07:53 Partly Cloudy with Patchy Fog 65 18.3 64 17.8 97 97 Calm 30 1016 8 12.874752 0 0
8:53 am 08:53 Mostly Sunny 69 20.6 67 19.4 93 93 Calm 29.97 1015 4 6.437376 0 0
9:53 am 09:53 Sunny 74 23.3 68 20 82 82 Calm 30 1016 10 16.09344 0 0
10:53 am 10:53 Sunny 79 26.1 66 18.9 65 65 Calm 29.97 1015 10 16.09344 0 0
11:53 am 11:53 Partly Cloudy 81 27.2 66 18.9 61 61 SSW 7 11 30 1016 10 16.09344 0 0
12:53 pm 12:53 Partly Cloudy 83 28.3 66 18.9 57 57 SW 8 13 30 1016 10 16.09344 0 0
1:53 pm 13:53 Mostly Sunny 85 29.4 62 16.7 46 46 WSW 7 11 29.97 1015 10 16.09344 0 0
2:53 pm 14:53 Mostly Sunny 85 29.4 63 17.2 48 48 VRB 5 7 29.97 1015 10 16.09344 0 0
3:53 pm 15:53 Mostly Sunny 86 30 63 17.2 46 46 VRB 3 6 29.94 1014 10 16.09344 0 0
4:53 pm 16:53 Cloudy 84 28.9 62 16.7 48 48 SSW 9 15 29.94 1014 10 16.09344 0 0
5:53 pm 17:53 Sunny 86 30 64 17.8 48 48 S 5 7 29.91 1013 10 16.09344 0 0
6:53 pm 18:53 Sunny 84 28.9 65 18.3 53 53 S 10 17 29.91 1013 10 16.09344 0 0
7:53 pm 19:53 Sunny 80 26.7 67 19.4 64 64 S 6 9 29.91 1013 10 16.09344 0 0
8:53 pm 20:53 Clear 75 23.9 68 20 79 79 Calm 29.91 1013 10 16.09344 0 0
9:53 pm 21:53 Clear 72 22.2 68 20 87 87 Calm 29.94 1014 10 16.09344 0 0
10:53 pm 22:53 Clear 70 21.1 67 19.4 90 90 Calm 29.94 1014 10 16.09344 0 0
11:53 pm 23:53 Clear 71 21.7 68 20 90 90 Calm 29.94 1014 10 16.09344 0 0

Powered by AerisWeather